Flag for Austria Weather past 2 weeks in Jennersdorf, Burgenland, Austria

Now
39 °F

Chilly.


Feels Like: 34 °F
Forecast: 32 / 48 °F
Wind: 7 mph from Northeast

Location: Murska Sobota

Current Time: Mar 6, 2015 at 1:11:09 AM

Latest Report: Mar 6, 2015 at 12:00 AM


Visibility: N/A

Pressure: 30.45 "Hg

Humidity: 63%

Dew point: 27 °F

Location of JennersdorfLocation

Historic Weather in Jennersdorf — Graph

°F

Jennersdorf temperature yesterday

Maximum temperature yesterday: 47 °F (at 1:00 PM)
Minimum temperature yesterday: 39 °F (at 8:00 PM)
Average temperature yesterday: 42 °F

Past Weeks' High & Low Weather Summary

 TemperatureHumidityPressure
High53 °F (Mar 2, 4:00 PM)98% (Feb 24, 4:00 AM)30.70 "Hg (Feb 24, 4:00 AM)
Low22 °F (Feb 20, 7:00 AM)26% (Mar 3, 4:00 PM)29.66 "Hg (Feb 23, 4:00 PM)
Average41 °F74%30.03 "Hg
* Reported Feb 18 11:00 PM — Mar 5 11:00 PM, Jennersdorf, Weather by CustomWeather, © 2015

Note: Actual official high and low records may vary slightly from our data, if they occured in-between our weather recording intervals... More about our weather records

Advertising

Jennersdorf weather history for previous 24 hours

 ConditionsComfort  
Time TempWeatherWind HumidityBarometerVisibility
11:00 PM
Thu, Mar 5
40 °FChilly.7 mph61%30.43 "HgN/A
10:00 PM40 °FChilly.8 mph60%30.41 "HgN/A
9:00 PM39 °FChilly.6 mph63%30.40 "HgN/A
8:00 PM39 °FChilly.5 mph63%30.40 "HgN/A
7:00 PM40 °FPassing clouds.5 mph60%30.39 "Hg31 mi
6:00 PM42 °FQuite cool.10 mph54%30.36 "HgN/A
5:00 PM44 °FQuite cool.10 mph50%30.34 "HgN/A
4:00 PM45 °FCool.8 mph45%30.33 "HgN/A
3:00 PM46 °FCool.8 mph47%30.31 "HgN/A
2:00 PM46 °FPartly sunny.10 mph46%30.31 "Hg31 mi
1:00 PM47 °FPartly sunny.10 mph48%30.32 "Hg31 mi
12:00 PM45 °FCool.8 mph52%30.34 "HgN/A
11:00 AM44 °FQuite cool.10 mph51%30.35 "HgN/A
10:00 AM43 °FQuite cool.8 mph56%30.37 "HgN/A
8:00 AM41 °FOvercast.5 mph57%30.37 "Hg25 mi
7:00 AM40 °FOvercast.3 mph57%30.36 "Hg12 mi
6:00 AM41 °FQuite cool.3 mph55%30.35 "HgN/A
5:00 AM41 °FQuite cool.6 mph56%30.34 "HgN/A
2:00 AM41 °FQuite cool.2 mph54%30.34 "HgN/A
1:00 AM41 °FQuite cool.2 mph55%30.33 "HgN/A
Weather by CustomWeather, © 2015

See weather overviewHow to use our weather pages